Time,TemperatureF,DewpointF,PressureIn,WindDirection,WindDirectionDegrees,WindSpeedMPH,WindSpeedGustMPH,Humidity,HourlyPrecipIn,Conditions,Clouds,dailyrainin,SoftwareType,DateUTC
2013-12-07 00:03:00,32.9,30.0,30.12,NNW,340,0.0,1.0,87,0.00,,,0.75,weatherlink.com 1.10,2013-12-07 05:03:00,
2013-12-07 00:18:00,32.6,30.0,30.12,NNW,340,0.0,1.0,88,0.00,,,0.75,weatherlink.com 1.10,2013-12-07 05:18:00,
2013-12-07 00:33:00,32.7,29.0,30.12,NNW,340,0.0,1.0,87,0.00,,,0.75,weatherlink.com 1.10,2013-12-07 05:33:00,
2013-12-07 00:48:00,32.7,29.0,30.13,NNW,340,0.0,0.0,87,0.00,,,0.75,weatherlink.com 1.10,2013-12-07 05:48:00,
2013-12-07 01:03:00,33.3,28.0,30.13,West,281,0.0,2.0,82,0.00,,,0.75,weatherlink.com 1.10,2013-12-07 06:03:00,
2013-12-07 01:18:00,33.7,28.0,30.12,West,272,0.0,1.0,81,0.00,,,0.75,weatherlink.com 1.10,2013-12-07 06:18:00,
2013-12-07 01:33:00,33.6,28.0,30.12,West,271,0.0,0.0,81,0.00,,,0.00,weatherlink.com 1.10,2013-12-07 06:33:00,
2013-12-07 01:49:00,33.5,29.0,30.12,West,271,0.0,0.0,83,0.00,,,0.00,weatherlink.com 1.10,2013-12-07 06:49:00,
2013-12-07 02:04:00,33.6,28.0,30.14,West,268,0.0,1.0,79,0.00,,,0.00,weatherlink.com 1.10,2013-12-07 07:04:00,
2013-12-07 02:19:00,33.5,28.0,30.13,WNW,283,0.0,2.0,80,0.00,,,0.00,weatherlink.com 1.10,2013-12-07 07:19:00,
2013-12-07 02:34:00,33.0,29.0,30.14,WNW,283,0.0,0.0,84,0.00,,,0.00,weatherlink.com 1.10,2013-12-07 07:34:00,
2013-12-07 02:49:00,32.5,29.0,30.14,West,281,0.0,0.0,86,0.00,,,0.00,weatherlink.com 1.10,2013-12-07 07:49:00,
2013-12-07 03:04:00,32.4,27.0,30.14,North,350,1.0,3.0,81,0.00,,,0.00,weatherlink.com 1.10,2013-12-07 08:04:00,
2013-12-07 03:19:00,33.4,26.0,30.14,NNW,327,0.0,3.0,74,0.00,,,0.00,weatherlink.com 1.10,2013-12-07 08:19:00,
2013-12-07 03:34:00,33.6,25.0,30.15,NNW,342,3.0,4.0,72,0.00,,,0.00,weatherlink.com 1.10,2013-12-07 08:34:00,
2013-12-07 03:49:00,32.9,25.0,30.16,North,359,2.0,6.0,73,0.00,,,0.00,weatherlink.com 1.10,2013-12-07 08:49:00,
2013-12-07 04:04:00,32.3,25.0,30.16,North,7,1.0,5.0,73,0.00,,,0.00,weatherlink.com 1.10,2013-12-07 09:04:00,
2013-12-07 04:19:00,31.9,24.0,30.18,North,350,2.0,6.0,73,0.00,,,0.00,weatherlink.com 1.10,2013-12-07 09:19:00,
2013-12-07 04:34:00,31.7,24.0,30.18,NNE,22,4.0,5.0,72,0.00,,,0.00,weatherlink.com 1.10,2013-12-07 09:34:00,
2013-12-07 04:49:00,31.6,23.0,30.18,NE,36,2.0,4.0,71,0.00,,,0.00,weatherlink.com 1.10,2013-12-07 09:49:00,
2013-12-07 05:04:00,31.4,24.0,30.18,NE,49,4.0,5.0,73,0.00,,,0.00,weatherlink.com 1.10,2013-12-07 10:04:00,
2013-12-07 05:19:00,31.3,23.0,30.19,North,6,3.0,5.0,72,0.00,,,0.00,weatherlink.com 1.10,2013-12-07 10:19:00,
2013-12-07 05:34:00,31.3,23.0,30.20,NW,325,0.0,4.0,71,0.00,,,0.00,weatherlink.com 1.10,2013-12-07 10:34:00,
2013-12-07 05:49:00,31.4,23.0,30.20,North,359,2.0,5.0,71,0.00,,,0.00,weatherlink.com 1.10,2013-12-07 10:49:00,
2013-12-07 06:04:00,31.4,22.0,30.21,North,353,2.0,7.0,69,0.00,,,0.00,weatherlink.com 1.10,2013-12-07 11:04:00,
2013-12-07 06:19:00,31.2,22.0,30.21,NNW,336,2.0,6.0,69,0.00,,,0.00,weatherlink.com 1.10,2013-12-07 11:19:00,
2013-12-07 06:34:00,31.1,22.0,30.22,North,356,4.0,9.0,69,0.00,,,0.00,weatherlink.com 1.10,2013-12-07 11:34:00,
2013-12-07 06:49:00,30.8,22.0,30.23,NW,323,1.0,6.0,69,0.00,,,0.00,weatherlink.com 1.10,2013-12-07 11:49:00,
2013-12-07 07:04:00,30.5,21.0,30.23,North,352,3.0,9.0,68,0.00,,,0.00,weatherlink.com 1.10,2013-12-07 12:04:00,
2013-12-07 07:19:00,30.2,21.0,30.24,NW,311,0.0,6.0,68,0.00,,,0.00,weatherlink.com 1.10,2013-12-07 12:19:00,
2013-12-07 07:34:00,29.8,21.0,30.25,NNW,344,4.0,6.0,69,0.00,,,0.00,weatherlink.com 1.10,2013-12-07 12:34:00,
2013-12-07 07:49:00,29.6,21.0,30.25,North,349,1.0,7.0,69,0.00,,,0.00,weatherlink.com 1.10,2013-12-07 12:49:00,
2013-12-07 08:05:00,29.3,20.0,30.26,NNW,331,2.0,5.0,67,0.00,,,0.00,weatherlink.com 1.10,2013-12-07 13:05:00,
2013-12-07 08:20:00,29.4,19.0,30.27,North,352,3.0,5.0,65,0.00,,,0.00,weatherlink.com 1.10,2013-12-07 13:20:00,
2013-12-07 08:35:00,29.6,20.0,30.28,NNW,343,1.0,7.0,67,0.00,,,0.00,weatherlink.com 1.10,2013-12-07 13:35:00,
2013-12-07 08:50:00,29.5,19.0,30.29,NNW,344,2.0,5.0,64,0.00,,,0.00,weatherlink.com 1.10,2013-12-07 13:50:00,
2013-12-07 09:05:00,29.4,19.0,30.29,NNW,343,1.0,7.0,64,0.00,,,0.00,weatherlink.com 1.10,2013-12-07 14:05:00,
2013-12-07 09:20:00,29.5,18.0,30.30,NNW,336,4.0,5.0,63,0.00,,,0.00,weatherlink.com 1.10,2013-12-07 14:20:00,
2013-12-07 09:35:00,29.7,17.0,30.31,NNW,335,1.0,6.0,60,0.00,,,0.00,weatherlink.com 1.10,2013-12-07 14:35:00,
2013-12-07 09:50:00,30.0,18.0,30.32,NNW,339,4.0,5.0,60,0.00,,,0.00,weatherlink.com 1.10,2013-12-07 14:50:00,
2013-12-07 10:05:00,30.6,17.0,30.32,NNW,331,2.0,6.0,58,0.00,,,0.00,weatherlink.com 1.10,2013-12-07 15:05:00,
2013-12-07 10:20:00,30.8,17.0,30.32,North,356,4.0,5.0,58,0.00,,,0.00,weatherlink.com 1.10,2013-12-07 15:20:00,
2013-12-07 10:35:00,30.9,17.0,30.32,North,355,5.0,7.0,56,0.00,,,0.00,weatherlink.com 1.10,2013-12-07 15:35:00,
2013-12-07 10:50:00,30.8,17.0,30.31,North,9,2.0,7.0,56,0.00,,,0.00,weatherlink.com 1.10,2013-12-07 15:50:00,
2013-12-07 11:05:00,31.4,17.0,30.31,NNW,331,2.0,7.0,55,0.00,,,0.00,weatherlink.com 1.10,2013-12-07 16:05:00,
2013-12-07 11:20:00,31.0,17.0,30.31,North,350,2.0,7.0,56,0.00,,,0.00,weatherlink.com 1.10,2013-12-07 16:20:00,
2013-12-07 11:35:00,32.0,16.0,30.31,North,352,3.0,4.0,53,0.00,,,0.00,weatherlink.com 1.10,2013-12-07 16:35:00,
2013-12-07 11:50:00,32.5,18.0,30.30,WNW,297,1.0,5.0,55,0.00,,,0.00,weatherlink.com 1.10,2013-12-07 16:50:00,
2013-12-07 12:05:00,32.2,17.0,30.30,NW,325,0.0,5.0,53,0.00,,,0.00,weatherlink.com 1.10,2013-12-07 17:05:00,
2013-12-07 12:20:00,32.4,16.0,30.30,NW,320,2.0,5.0,51,0.00,,,0.00,weatherlink.com 1.10,2013-12-07 17:20:00,
2013-12-07 12:35:00,33.4,16.0,30.30,North,5,3.0,6.0,50,0.00,,,0.00,weatherlink.com 1.10,2013-12-07 17:35:00,
2013-12-07 12:50:00,33.8,15.0,30.30,NW,313,0.0,6.0,47,0.00,,,0.00,weatherlink.com 1.10,2013-12-07 17:50:00,
2013-12-07 13:05:00,33.2,15.0,30.30,NNW,329,5.0,5.0,48,0.00,,,0.00,weatherlink.com 1.10,2013-12-07 18:05:00,
2013-12-07 13:20:00,32.7,15.0,30.29,NW,320,0.0,5.0,48,0.00,,,0.00,weatherlink.com 1.10,2013-12-07 18:20:00,
2013-12-07 13:35:00,33.0,16.0,30.30,NNW,327,4.0,5.0,49,0.00,,,0.00,weatherlink.com 1.10,2013-12-07 18:35:00,
2013-12-07 13:50:00,33.7,16.0,30.29,NW,320,2.0,7.0,49,0.00,,,0.00,weatherlink.com 1.10,2013-12-07 18:50:00,
2013-12-07 14:05:00,33.6,16.0,30.30,NNW,344,1.0,6.0,48,0.00,,,0.00,weatherlink.com 1.10,2013-12-07 19:05:00,
2013-12-07 14:20:00,33.6,15.0,30.30,NNW,327,2.0,7.0,47,0.00,,,0.00,weatherlink.com 1.10,2013-12-07 19:20:00,
2013-12-07 14:35:00,34.1,16.0,30.30,SSW,206,3.0,5.0,47,0.00,,,0.00,weatherlink.com 1.10,2013-12-07 19:35:00,
2013-12-07 14:50:00,33.4,16.0,30.30,NW,320,0.0,4.0,49,0.00,,,0.00,weatherlink.com 1.10,2013-12-07 19:50:00,
2013-12-07 15:05:00,33.1,16.0,30.31,NW,316,0.0,2.0,50,0.00,,,0.00,weatherlink.com 1.10,2013-12-07 20:05:00,
2013-12-07 15:20:00,33.2,17.0,30.31,WNW,293,0.0,3.0,51,0.00,,,0.00,weatherlink.com 1.10,2013-12-07 20:20:00,
2013-12-07 15:35:00,32.6,17.0,30.32,NW,320,0.0,2.0,52,0.00,,,0.00,weatherlink.com 1.10,2013-12-07 20:35:00,
2013-12-07 15:50:00,31.9,16.0,30.32,NW,316,0.0,2.0,53,0.00,,,0.00,weatherlink.com 1.10,2013-12-07 20:50:00,
2013-12-07 16:05:00,31.2,17.0,30.32,NNW,333,1.0,4.0,57,0.00,,,0.00,weatherlink.com 1.10,2013-12-07 21:05:00,
2013-12-07 16:20:00,30.8,17.0,30.33,NNW,328,0.0,3.0,58,0.00,,,0.00,weatherlink.com 1.10,2013-12-07 21:20:00,
2013-12-07 16:35:00,30.5,18.0,30.34,NNW,332,0.0,3.0,60,0.00,,,0.00,weatherlink.com 1.10,2013-12-07 21:35:00,
2013-12-07 16:50:00,30.4,18.0,30.35,WNW,296,1.0,4.0,61,0.00,,,0.00,weatherlink.com 1.10,2013-12-07 21:50:00,
2013-12-07 17:05:00,29.7,21.0,30.36,SW,236,0.0,4.0,70,0.00,,,0.00,weatherlink.com 1.10,2013-12-07 22:05:00,
2013-12-07 17:20:00,29.6,21.0,30.37,WNW,294,0.0,1.0,70,0.00,,,0.00,weatherlink.com 1.10,2013-12-07 22:20:00,
2013-12-07 17:36:00,29.6,20.0,30.37,WSW,258,0.0,1.0,68,0.00,,,0.00,weatherlink.com 1.10,2013-12-07 22:36:00,
2013-12-07 17:51:00,29.7,20.0,30.37,WNW,300,0.0,1.0,66,0.00,,,0.00,weatherlink.com 1.10,2013-12-07 22:51:00,
2013-12-07 18:06:00,29.9,20.0,30.37,West,276,0.0,1.0,67,0.00,,,0.00,weatherlink.com 1.10,2013-12-07 23:06:00,
2013-12-07 18:21:00,29.9,20.0,30.38,West,277,0.0,2.0,67,0.00,,,0.00,weatherlink.com 1.10,2013-12-07 23:21:00,
2013-12-07 18:36:00,29.6,19.0,30.38,West,277,1.0,1.0,66,0.00,,,0.00,weatherlink.com 1.10,2013-12-07 23:36:00,
2013-12-07 18:51:00,29.8,19.0,30.39,NW,319,0.0,2.0,65,0.00,,,0.00,weatherlink.com 1.10,2013-12-07 23:51:00,
2013-12-07 19:06:00,29.9,18.0,30.39,NW,309,1.0,3.0,62,0.00,,,0.00,weatherlink.com 1.10,2013-12-08 00:06:00,
2013-12-07 19:21:00,29.9,18.0,30.40,NW,316,1.0,4.0,62,0.00,,,0.00,weatherlink.com 1.10,2013-12-08 00:21:00,
2013-12-07 19:36:00,29.9,18.0,30.40,WNW,301,0.0,2.0,62,0.00,,,0.00,weatherlink.com 1.10,2013-12-08 00:36:00,
2013-12-07 19:51:00,29.8,18.0,30.41,West,281,0.0,3.0,62,0.00,,,0.00,weatherlink.com 1.10,2013-12-08 00:51:00,
2013-12-07 20:06:00,29.6,18.0,30.41,NW,316,0.0,3.0,62,0.00,,,0.00,weatherlink.com 1.10,2013-12-08 01:06:00,
2013-12-07 20:21:00,29.4,18.0,30.41,NNW,328,0.0,2.0,63,0.00,,,0.00,weatherlink.com 1.10,2013-12-08 01:21:00,
2013-12-07 20:36:00,29.3,18.0,30.42,NNW,339,1.0,2.0,64,0.00,,,0.00,weatherlink.com 1.10,2013-12-08 01:36:00,
2013-12-07 20:51:00,29.4,18.0,30.43,NW,315,2.0,5.0,63,0.00,,,0.00,weatherlink.com 1.10,2013-12-08 01:51:00,
2013-12-07 21:06:00,29.1,18.0,30.43,NNW,344,0.0,2.0,64,0.00,,,0.00,weatherlink.com 1.10,2013-12-08 02:06:00,
2013-12-07 21:21:00,28.7,19.0,30.43,NNW,346,0.0,2.0,67,0.00,,,0.00,weatherlink.com 1.10,2013-12-08 02:21:00,
2013-12-07 21:36:00,28.4,19.0,30.43,NNW,331,0.0,1.0,68,0.00,,,0.00,weatherlink.com 1.10,2013-12-08 02:36:00,
2013-12-07 21:51:00,28.6,18.0,30.44,WNW,286,2.0,4.0,65,0.00,,,0.00,weatherlink.com 1.10,2013-12-08 02:51:00,
2013-12-07 22:06:00,28.4,20.0,30.45,NW,316,0.0,4.0,70,0.00,,,0.00,weatherlink.com 1.10,2013-12-08 03:06:00,
2013-12-07 22:21:00,28.0,19.0,30.46,WNW,286,0.0,4.0,70,0.00,,,0.00,weatherlink.com 1.10,2013-12-08 03:21:00,
2013-12-07 22:36:00,27.8,18.0,30.46,NW,308,1.0,3.0,66,0.00,,,0.00,weatherlink.com 1.10,2013-12-08 03:36:00,
2013-12-07 22:51:00,28.2,15.0,30.46,WNW,302,2.0,5.0,57,0.00,,,0.00,weatherlink.com 1.10,2013-12-08 03:51:00,
2013-12-07 23:06:00,28.1,14.0,30.46,WNW,289,2.0,4.0,56,0.00,,,0.00,weatherlink.com 1.10,2013-12-08 04:06:00,
2013-12-07 23:21:00,28.0,14.0,30.46,NW,317,2.0,3.0,55,0.00,,,0.00,weatherlink.com 1.10,2013-12-08 04:21:00,
2013-12-07 23:36:00,27.9,13.0,30.47,NW,306,0.0,1.0,54,0.00,,,0.00,weatherlink.com 1.10,2013-12-08 04:36:00,
2013-12-07 23:51:00,27.8,16.0,30.47,NNW,334,0.0,4.0,62,0.00,,,0.00,weatherlink.com 1.10,2013-12-08 04:51:00,